Location: Clermont
(50.2608°N, 4.3172°E)
Time: 15:11:31
(UTC+00:00)

Cosmos 1242 Rocket - Pass Details

Date: 13 August 2020
Orbit: 448 x 486 km, 81.2° (Epoch: 18 September)

Event Time Altitude Azimuth Distance (km) Brightness Sun altitude
Rises 22:45:34 0° 340° (NNW) 2,544 7.6 -24.0°
Reaches altitude 10° 22:47:47 10° 330° (NNW) 1,665 6.3 -24.1°
Enters shadow 22:50:37 32° 282° (WNW) 861 4.0 -24.3°
